User: anonymous   Login
Location: Unspecified
(0.0000°N, 0.0000°E)
Time: 08:49:12
(UTC+00:00)
Language:

PSAT 2 - Orbit

View from above orbital plane
View from above orbital plane
View from above satellite
View from above satellite

Ground track
Ground track

The orbit data is extracted from the following two-line orbital elements,

1 44354U 19036R   22333.64283781  .00118076 -26959-5  59619-3 0  9994
2 44354  28.5193  95.0033 0148183  63.1501 298.4172 15.65723740190341
Epoch (UTC): 29 November 2022 15:25:41
Eccentricity: 0.0148183
inclination: 28.5193°
perigee height: 271 km
apogee height: 471 km
right ascension of ascending node: 95.0033°
argument of perigee: 63.1501°
revolutions per day: 15.65723740
mean anomaly at epoch: 298.4172°
orbit number at epoch: 19034

The dashed part of the orbit path shows where the satellite is in the earth's shadow,  

DLR